#timestamp,LO_Frequency,Hit,StdDev 
1621008015.7,286047001.9,N
1621008035.5,286047001.6,N
1621008055.4,286047003.7,N
1621008075.2,286047003.6,N
1621008095.0,286047004.1,N
1621008095.9,286047004.1,N
1621008115.8,286047005.0,N
1621008135.6,286047005.5,N
1621008155.5,286047002.7,N
1621008175.3,286047000.3,N
1621008195.1,286046999.7,N
1621008215.9,286047001.9,N
1621008235.7,286047001.6,N
1621008255.5,286047002.3,N
1621008275.4,286047002.5,N
1621008295.2,286047004.1,N
1621008315.1,286047001.3,N
1621008316.0,286047001.3,N
1621008335.8,286047002.8,N
1621008355.6,286047003.1,N
1621008375.5,286047005.8,Y
1621008395.3,286047001.8,P
1621008415.2,286047002.8,P
1621008435.9,286047001.6,P
1621008455.7,286047001.4,N
1621008475.6,286047003.0,Y
1621008495.4,286047002.5,P
1621008515.3,286047002.6,P
1621008535.1,286047001.0,P
1621008536.0,286047001.0,N
1621008555.8,286047000.9,N
1621008575.7,286047000.1,N
1621008595.5,286046998.1,N
1621008615.3,286047002.3,N
1621008635.2,286047002.7,N
1621008655.0,286047001.7,N
1621008655.9,286047001.7,N
1621008675.8,286047004.3,Y
1621008695.6,286047000.0,P
1621008715.5,286047002.7,P
1621008735.3,286046998.2,N
1621008755.1,286046999.5,N
1621008775.9,286046997.9,N
1621008795.7,286046997.4,N
1621008815.5,286046996.5,N
1621008835.4,286046996.6,N
1621008855.2,286046997.4,N
1621008875.1,286046997.7,N
1621008876.0,286046997.7,N
1621008895.8,286046998.7,N
1621008915.6,286047001.1,N
1621008935.5,286047000.0,N
1621008955.3,286047000.7,N
1621008975.1,286046995.1,N
1621008995.9,286046997.4,N
1621009015.7,286046999.3,N
1621009035.6,286046998.6,N
1621009055.4,286047001.0,N
1621009075.2,286047001.9,N
1621009095.1,286047004.4,N
1621009096.0,286047004.4,N
1621009115.8,286047002.1,N
1621009135.6,286047002.0,N
1621009155.5,286047000.5,N
1621009175.3,286047002.4,N
1621009195.2,286047002.5,N
1621009215.9,286047001.8,N
1621009235.7,286047003.7,N
1621009255.6,286047004.1,N
1621009275.4,286047005.3,N
1621009295.2,286047004.3,N
1621009315.1,286047001.9,N
1621009316.0,286047001.9,N
1621009335.8,286047001.0,N
1621009355.7,286046999.9,N
1621009375.5,286047000.0,N
1621009395.3,286046999.9,N
1621009415.2,286046999.9,N
1621009435.0,286047002.0,N
1621009435.9,286047002.0,N
1621009455.8,286047000.3,N
1621009475.6,286047002.3,N
1621009495.4,286047001.6,N
1621009515.3,286047001.8,N
1621009535.4,286047003.9,N
1621009555.2,286047001.4,N
1621009575.0,286047004.3,N
1621009575.9,286047004.3,N
1621009595.8,286047001.4,N
1621009615.6,286047002.1,N
1621009635.5,286047001.8,N
1621009655.3,286047002.3,N
1621009675.1,286047002.7,N
1621009695.9,286047000.4,N
1621009715.7,286047002.8,N
1621009735.6,286047002.3,N
1621009755.4,286047002.0,N
1621009775.2,286047004.1,N
1621009795.1,286047006.0,Y
1621009796.0,286047006.0,P
1621009815.8,286047000.4,N
1621009835.7,286047000.6,N
1621009855.5,286047000.4,N
1621009875.3,286046999.9,N
1621009895.2,286047000.4,N
1621009915.0,286047002.0,N
1621009915.9,286047002.0,N
1621009935.7,286047000.1,N
1621009955.6,286047000.2,N
1621009975.4,286047001.5,N
1621009995.3,286047004.3,N
1621010015.1,286047002.8,N
1621010016.0,286047002.8,N
1621010035.8,286047000.7,N
1621010055.7,286047000.3,N
1621010075.5,286047001.5,N
1621010095.3,286047001.3,N
1621010115.2,286047001.3,N
1621010135.0,286047001.6,N
1621010135.9,286047001.6,N
1621010155.8,286047001.4,N
1621010175.6,286047003.0,N
1621010195.4,286047002.5,N
1621010215.3,286047002.7,N
1621010235.1,286046998.2,N
1621010255.9,286046999.3,N
1621010275.7,286046995.6,N
1621010295.5,286046996.5,N
1621010315.4,286046998.1,N
1621010335.2,286047000.5,N
1621010355.1,286046999.8,N
1621010356.0,286046999.8,N
1621010375.8,286046998.9,N
1621010395.6,286046996.6,N
1621010415.5,286046996.6,N
1621010435.3,286046998.9,N
1621010455.1,286046998.2,N
1621010475.9,286046998.7,N
1621010495.7,286047000.6,N
1621010515.6,286047000.9,N
1621010535.4,286047000.6,N
1621010555.2,286046999.8,N
1621010575.1,286047002.4,N
1621010576.0,286047002.4,N
1621010595.8,286047001.8,N
1621010615.6,286047002.3,N
1621010635.5,286047002.0,N
1621010655.3,286047000.0,N
1621010675.2,286047000.1,N
1621010695.9,286046999.1,N
1621010715.7,286046994.9,N
1621010735.6,286046996.7,N
1621010755.4,286046998.8,N
1621010775.2,286047000.5,N
1621010795.1,286046999.8,N
1621010796.0,286046999.8,N
1621010815.8,286046999.1,N
1621010835.7,286046998.3,N
1621010855.5,286046998.4,N
1621010875.3,286046997.0,N
1621010895.2,286046998.3,N
1621010915.0,286046999.6,N
1621010915.9,286046999.6,N
1621010935.8,286046999.4,N
1621010955.6,286046996.7,N
1621010975.4,286046999.5,N
1621010995.3,286047000.9,N
1621011015.1,286047002.8,N
1621011035.8,286047003.9,N
1621011055.7,286047004.4,N
1621011075.5,286047002.2,N
1621011095.3,286047002.8,N
1621011115.2,286047000.0,N
1621011135.0,286046998.5,N
1621011135.9,286046998.5,N
1621011155.8,286046998.1,N
1621011175.6,286046999.5,N
1621011195.4,286047001.2,N
1621011215.3,286046998.3,N
1621011235.1,286047001.2,N
1621011255.9,286047000.8,N
1621011275.7,286047000.3,N
1621011295.5,286046999.9,N
1621011315.4,286047002.4,N
1621011335.2,286047001.5,N
1621011355.0,286047001.7,N
1621011356.0,286047001.7,N
1621011375.8,286047002.5,N
1621011395.6,286047001.5,N
1621011415.5,286047002.5,N
1621011435.3,286047000.7,N
1621011455.1,286046998.4,N
1621011475.9,286047001.1,N
1621011495.7,286046998.9,N
1621011515.6,286046998.5,N
1621011535.4,286046998.6,N
1621011555.2,286047000.6,N
1621011575.1,286047000.1,N
1621011576.0,286047000.1,N
1621011595.8,286046998.7,N
